Starlink 31345

operational
NORAD ID: 58941 Int'l Des: 2024-027 Owner: SPXS Country: US Constellation: starlink
LEOCIRCULAR

Starlink 31345について

説明を読み込み中...

リアルタイム位置

3D地球を読み込み中...

次回通過

高度履歴

Altitude vs Time

uPlot chart will show altitude changes over time

軌道要素

1 58941U 24027L 25260.65315093 .00000096 00000-0 15354-4 0 9996
2 58941 53.1623 33.5027 0001248 84.4240 275.6903 15.30202045 90830
Epoch: Sep 17, 2025 • Age: 24 hours

現在のステータス

高度 477.1 km
速度 7.63 km/s
衛星直下点 -5.38°S, 25.02°W
打ち上げ日 Feb 10, 2024
運用期間 1.6 years
タイプ internet

技術仕様

分類 Payload
質量 730.00 kg
乾燥質量 700.00 kg
総質量 730.00 kg
長さ 0.30 m
直径 4.10 m
スパン 29.00 m
形状 Box + pan
製造者 SPXS
バスタイプ Starlink V2M
フェーズステータス In Orbit
所有者/国 SPXS/US

大規模コンステレーション

Loading constellations...